This is the latest recevied weather packets stored in our database for station/object KQ4DLB-13. If no packets are shown the sender has not sent any weather packets the latest 10 day(s).
| Time | Temp. | Humidity | Pressure | Rain* | Wind** | Luminosity | Snow |
|---|---|---|---|---|---|---|---|
| 1777671902 | 17.22° C | 40% | 989.5 hPa | 0 mm | - | 552 W/m² | - |
| 1777671602 | 17.78° C | 39% | 989.4 hPa | 0 mm | - | 343 W/m² | - |
| 1777671302 | 17.78° C | 42% | 989.6 hPa | 0 mm | - | 450 W/m² | - |
| 1777671002 | 17.78° C | 44% | 989.6 hPa | 0 mm | - | 492 W/m² | - |
| 1777670702 | 17.78° C | 42% | 989.6 hPa | 0 mm | - | 392 W/m² | - |
| 1777670402 | 17.22° C | 42% | 989.7 hPa | 0 mm | - | 450 W/m² | - |
| 1777670102 | 17.22° C | 43% | 989.7 hPa | 0 mm | - | 440 W/m² | - |
| 1777669802 | 17.22° C | 43% | 989.7 hPa | 0 mm | - | 439 W/m² | - |
| 1777669502 | 17.78° C | 43% | 989.7 hPa | 0 mm | - | 401 W/m² | - |
| 1777669202 | 17.78° C | 44% | 989.8 hPa | 0 mm | - | 393 W/m² | - |
| 1777668902 | 17.78° C | 45% | 989.9 hPa | 0 mm | - | 371 W/m² | - |
| 1777668602 | 17.78° C | 47% | 989.9 hPa | 0 mm | - | 396 W/m² | - |
| 1777668302 | 17.78° C | 47% | 990.1 hPa | 0 mm | - | 360 W/m² | - |
| 1777668002 | 17.78° C | 49% | 990.1 hPa | 0 mm | - | 362 W/m² | - |
| 1777667702 | 17.78° C | 47% | 990.2 hPa | 0 mm | - | 448 W/m² | - |
| 1777667402 | 17.78° C | 48% | 990.2 hPa | 0 mm | - | 375 W/m² | - |
| 1777667102 | 18.33° C | 49% | 990.4 hPa | 0 mm | - | 425 W/m² | - |
| 1777666802 | 18.33° C | 50% | 990.4 hPa | 0 mm | - | 508 W/m² | - |
| 1777666502 | 18.33° C | 48% | 990.5 hPa | 0 mm | - | 521 W/m² | - |
| 1777666203 | 18.33° C | 48% | 990.6 hPa | 0 mm | - | 565 W/m² | - |
| 1777665902 | 18.33° C | 48% | 990.7 hPa | 0 mm | - | 510 W/m² | - |
| 1777665602 | 18.33° C | 49% | 990.8 hPa | 0 mm | - | 638 W/m² | - |
| 1777665302 | 18.33° C | 50% | 990.9 hPa | 0 mm | - | 757 W/m² | - |
| 1777665002 | 18.33° C | 48% | 991 hPa | 0 mm | - | 682 W/m² | - |
| 1777664702 | 18.33° C | 48% | 991.1 hPa | 0 mm | - | 791 W/m² | - |
* Rain latest hour (hover to see other rain measurements)
** Current wind speed in m/s (hover to see current wind gust speed)